{"data":{"norad_id":59037,"intl_designator":"2024-038Q","name":"STARLINK-31208","alt_names":[],"object_type":"PAYLOAD","status":"ACTIVE","operator":null,"country":"US","launch_date":"2024-02-25","launch_site_code":"AFETR","launch_vehicle":null,"mission":null,"orbit_class":"UNKNOWN","rcs_meters":null,"size_class":null,"mass_kg":null,"dimensions":null,"purposes":["comms"],"wikipedia_slug":null,"has_3d_model":false,"image_url":null,"decayed_at":null,"tle_current":{"epoch":"2026-09-20T14:46:25.905504Z","epoch_age_seconds":145779,"freshness":"FRESH","line1":"1 59037U 24038Q   26263.61557761 -.00000061  00000+0  73182-5 0  9991","line2":"2 59037  43.0047   6.6539 0001233 261.3194  98.7518 15.27577963144625","mean_motion":15.27577963,"eccentricity":0.0001233,"inclination_deg":43.0047,"raan_deg":6.6539,"arg_perigee_deg":261.3194,"mean_anomaly_deg":98.7518,"bstar":7.3182e-6,"rev_number":14462,"period_min":94.266874416805,"perigee_km":482.20921055952,"apogee_km":483.90118055495,"semimajor_km":6861.1921955572,"source":"CELESTRAK","updated_at":"2026-09-21T09:00:34.031284Z"}}}